This is the latest recevied weather packets stored in our database for station/object WD8INF-9. If no packets are shown the sender has not sent any weather packets the latest 10 day(s).
| Time | Temp. | Humidity | Pressure | Rain* | Wind** | Luminosity | Snow |
|---|---|---|---|---|---|---|---|
| 1777597815 | 10° C | - | 1013.7 hPa | 0 mm | - | - | - |
| 1777597515 | 10° C | - | 1013.6 hPa | 0 mm | - | - | - |
| 1777597214 | 10° C | - | 1013.5 hPa | 0 mm | - | - | - |
| 1777596914 | 10.56° C | - | 1013.5 hPa | 0 mm | - | - | - |
| 1777596614 | 10.56° C | - | 1013.7 hPa | 0 mm | - | - | - |
| 1777596315 | 10.56° C | - | 1013.6 hPa | 0 mm | - | - | - |
| 1777596013 | 11.11° C | - | 1013.3 hPa | 0 mm | - | - | - |
| 1777595713 | 11.11° C | - | 1013.7 hPa | 0 mm | - | - | - |
| 1777595413 | 11.67° C | - | 1013.4 hPa | 0 mm | - | - | - |
| 1777595113 | 11.67° C | - | 1013.5 hPa | 0 mm | - | - | - |
| 1777594811 | 12.22° C | - | 1013.5 hPa | 0 mm | - | - | - |
| 1777594211 | 12.78° C | - | 1013.6 hPa | 0 mm | - | - | - |
| 1777593911 | 12.78° C | - | 1013.5 hPa | 0 mm | - | - | - |
| 1777593611 | 12.78° C | - | 1013.4 hPa | 0 mm | - | - | - |
| 1777593310 | 13.33° C | - | 1013.6 hPa | 0 mm | - | - | - |
| 1777593010 | 13.33° C | - | 1013.3 hPa | 0 mm | - | - | - |
| 1777592710 | 13.33° C | - | 1013.2 hPa | 0 mm | - | - | - |
| 1777592410 | 13.33° C | - | 1013.2 hPa | 0 mm | - | - | - |
| 1777592109 | 13.89° C | - | 1013.4 hPa | 0 mm | - | - | - |
| 1777591809 | 13.89° C | - | 1013.1 hPa | 0 mm | - | - | - |
| 1777591509 | 15° C | - | 1013.3 hPa | 0 mm | - | - | - |
| 1777591209 | 16.11° C | - | 1013.3 hPa | 0 mm | - | - | - |
| 1777590907 | 15° C | - | 1013.2 hPa | 0 mm | - | - | - |
| 1777590607 | 14.44° C | - | 1013.5 hPa | 0 mm | - | - | - |
| 1777590306 | 14.44° C | - | 1013.4 hPa | 0 mm | - | - | - |
* Rain since midnight (hover to see other rain measurements)
** Current wind speed in m/s (hover to see current wind gust speed)